• In Uzbekistan
  • List of Countries
  • For 7 days
  • Water Temperature
  • Satellite Maps
  • Weather Map
  • Weather Widgets
  • user-avatar
    Login

    Hourly Weather Albany

    Today, 8 December, Thursday

    Time Temperature Precipitation Wind Pressure Humidity
    00:00 +13°C° 0 mm 3 mps 762 mmHg 74%
    01:00 +12°C° 0 mm 3 mps 762 mmHg 75%
    02:00 +13°C° 0 mm 2 mps 762 mmHg 76%
    03:00 +12°C° 0 mm 2 mps 762 mmHg 78%
    04:00 +12°C° 0 mm 2 mps 762 mmHg 80%
    05:00 +10°C° 0 mm 2 mps 762 mmHg 82%
    06:00 +13°C° 0 mm 2 mps 762 mmHg 74%
    07:00 +15°C° 0 mm 2 mps 763 mmHg 66%
    08:00 +17°C° 0 mm 2 mps 763 mmHg 58%
    09:00 +19°C° 0 mm 2 mps 763 mmHg 53%
    10:00 +20°C° 0 mm 3 mps 763 mmHg 48%
    11:00 +22°C° 0 mm 3 mps 762 mmHg 43%
    12:00 +22°C° 0 mm 3 mps 762 mmHg 44%
    13:00 +22°C° 0 mm 4 mps 762 mmHg 45%
    14:00 +22°C° 0 mm 5 mps 761 mmHg 46%
    15:00 +21°C° 0 mm 5 mps 761 mmHg 49%
    16:00 +21°C° 0 mm 5 mps 761 mmHg 52%
    17:00 +20°C° 0 mm 5 mps 761 mmHg 55%
    18:00 +17°C° 0 mm 5 mps 761 mmHg 61%
    19:00 +16°C° 0 mm 5 mps 761 mmHg 67%
    20:00 +14°C° 0 mm 5 mps 761 mmHg 73%
    21:00 +14°C° 0 mm 5 mps 761 mmHg 75%
    22:00 +14°C° 0 mm 5 mps 761 mmHg 78%
    23:00 +13°C° 0 mm 5 mps 761 mmHg 81%

    Tomorrow, 9 December, Friday

    Time Temperature Precipitation Wind Pressure Humidity
    00:00 +13°C° 0 mm 5 mps 761 mmHg 82%
    01:00 +13°C° 0 mm 5 mps 760 mmHg 84%
    02:00 +12°C° 0 mm 5 mps 760 mmHg 85%
    03:00 +12°C° 0 mm 5 mps 760 mmHg 85%
    04:00 +12°C° 0 mm 5 mps 760 mmHg 85%
    05:00 +12°C° 0 mm 5 mps 759 mmHg 84%
    06:00 +14°C° 0 mm 5 mps 759 mmHg 74%
    07:00 +18°C° 0 mm 4 mps 759 mmHg 63%
    08:00 +20°C° 0 mm 4 mps 759 mmHg 52%
    09:00 +25°C° 0 mm 4 mps 759 mmHg 43%
    10:00 +28°C° 0 mm 3 mps 758 mmHg 33%
    11:00 +33°C° 0 mm 3 mps 758 mmHg 24%
    12:00 +33°C° 0 mm 3 mps 758 mmHg 26%
    13:00 +31°C° 0 mm 3 mps 757 mmHg 27%
    14:00 +32°C° 0 mm 4 mps 757 mmHg 28%
    15:00 +29°C° 0 mm 4 mps 757 mmHg 35%
    16:00 +27°C° 0 mm 4 mps 757 mmHg 41%
    17:00 +26°C° 0 mm 4 mps 757 mmHg 48%
    18:00 +22°C° 0 mm 4 mps 757 mmHg 57%
    19:00 +20°C° 0 mm 3 mps 758 mmHg 66%
    20:00 +18°C° 0 mm 3 mps 758 mmHg 75%
    21:00 +18°C° 0 mm 3 mps 759 mmHg 78%
    22:00 +17°C° 0 mm 3 mps 759 mmHg 82%
    23:00 +17°C° 0 mm 3 mps 759 mmHg 85%

    Day after tomorrow, 10 December, Saturday

    Time Temperature Precipitation Wind Pressure Humidity
    00:00 +15°C° 0 mm 4 mps 759 mmHg 87%
    01:00 +15°C° 0 mm 4 mps 758 mmHg 88%
    02:00 +15°C° 0 mm 4 mps 758 mmHg 90%
    03:00 +16°C° 0 mm 3 mps 758 mmHg 90%
    04:00 +16°C° 0 mm 3 mps 758 mmHg 91%
    05:00 +16°C° 0 mm 3 mps 757 mmHg 91%
    06:00 +18°C° 0 mm 3 mps 757 mmHg 80%
    07:00 +21°C° 0 mm 4 mps 757 mmHg 69%
    08:00 +23°C° 0 mm 4 mps 757 mmHg 57%
    09:00 +27°C° 0 mm 4 mps 757 mmHg 46%
    10:00 +30°C° 0 mm 5 mps 756 mmHg 36%
    11:00 +34°C° 0 mm 5 mps 756 mmHg 25%
    12:00 +35°C° 0 mm 5 mps 755 mmHg 23%
    13:00 +36°C° 0 mm 6 mps 754 mmHg 22%
    14:00 +38°C° 0 mm 7 mps 753 mmHg 21%
    15:00 +35°C° 0 mm 7 mps 752 mmHg 24%
    16:00 +34°C° 0 mm 7 mps 752 mmHg 27%
    17:00 +33°C° 0 mm 7 mps 751 mmHg 31%
    18:00 +29°C° 0 mm 6 mps 751 mmHg 39%
    19:00 +26°C° 0 mm 5 mps 752 mmHg 47%
    20:00 +23°C° 0 mm 4 mps 752 mmHg 55%
    21:00 +22°C° 0 mm 4 mps 752 mmHg 61%
    22:00 +21°C° 0 mm 4 mps 752 mmHg 66%
    23:00 +20°C° 0 mm 4 mps 752 mmHg 72%

    11 December, Sunday

    Time Temperature Precipitation Wind Pressure Humidity
    00:00 +19°C° 0 mm 4 mps 752 mmHg 75%
    01:00 +19°C° 0 mm 4 mps 752 mmHg 77%
    02:00 +17°C° 0 mm 5 mps 752 mmHg 80%
    03:00 +17°C° 0 mm 5 mps 752 mmHg 83%
    04:00 +17°C° 0 mm 4 mps 753 mmHg 86%
    05:00 +17°C° 0 mm 4 mps 753 mmHg 89%
    06:00 +18°C° 0 mm 4 mps 754 mmHg 83%
    07:00 +19°C° 0 mm 4 mps 755 mmHg 77%
    08:00 +20°C° 0 mm 4 mps 755 mmHg 72%
    09:00 +21°C° 0 mm 4 mps 755 mmHg 65%
    10:00 +22°C° 0 mm 4 mps 755 mmHg 59%
    11:00 +23°C° 0 mm 4 mps 755 mmHg 52%
    12:00 +23°C° 0.1 mm 4 mps 754 mmHg 52%
    13:00 +25°C° 0.1 mm 4 mps 754 mmHg 51%
    14:00 +25°C° 0.1 mm 5 mps 754 mmHg 50%
    15:00 +22°C° 0.2 mm 5 mps 754 mmHg 56%
    16:00 +21°C° 0.2 mm 5 mps 753 mmHg 62%
    17:00 +19°C° 0.2 mm 5 mps 753 mmHg 68%
    18:00 +18°C° 0.9 mm 4 mps 754 mmHg 74%
    19:00 +17°C° 0.9 mm 3 mps 754 mmHg 81%
    20:00 +16°C° 0.9 mm 2 mps 755 mmHg 88%
    21:00 +16°C° 0.4 mm 2 mps 755 mmHg 89%
    22:00 +16°C° 0.4 mm 3 mps 755 mmHg 90%
    23:00 +16°C° 0.4 mm 3 mps 755 mmHg 91%

    12 December, Monday

    Time Temperature Precipitation Wind Pressure Humidity
    00:00 +15°C° 0.5 mm 4 mps 755 mmHg 90%
    01:00 +15°C° 0.5 mm 6 mps 755 mmHg 90%
    02:00 +14°C° 0.5 mm 7 mps 755 mmHg 90%
    03:00 +14°C° 0.1 mm 7 mps 755 mmHg 86%
    04:00 +12°C° 0.1 mm 7 mps 755 mmHg 82%
    05:00 +12°C° 0.1 mm 7 mps 756 mmHg 78%
    06:00 +14°C° 0 mm 7 mps 757 mmHg 72%
    07:00 +15°C° 0 mm 7 mps 757 mmHg 66%
    08:00 +15°C° 0 mm 7 mps 758 mmHg 59%
    09:00 +16°C° 0 mm 7 mps 758 mmHg 56%
    10:00 +16°C° 0 mm 7 mps 758 mmHg 52%
    11:00 +17°C° 0 mm 7 mps 759 mmHg 49%
    12:00 +17°C° 0 mm 7 mps 759 mmHg 48%
    13:00 +18°C° 0 mm 7 mps 759 mmHg 47%
    14:00 +18°C° 0 mm 7 mps 759 mmHg 46%
    15:00 +18°C° 0 mm 7 mps 759 mmHg 49%
    16:00 +17°C° 0 mm 6 mps 759 mmHg 51%
    17:00 +17°C° 0 mm 6 mps 759 mmHg 54%
    18:00 +16°C° 0 mm 6 mps 760 mmHg 59%
    19:00 +15°C° 0 mm 5 mps 761 mmHg 65%
    20:00 +14°C° 0 mm 5 mps 761 mmHg 70%
    21:00 +13°C° 0 mm 5 mps 761 mmHg 72%
    22:00 +13°C° 0 mm 4 mps 762 mmHg 74%
    23:00 +13°C° 0 mm 4 mps 762 mmHg 76%

    13 December, Tuesday

    Time Temperature Precipitation Wind Pressure Humidity
    00:00 +13°C° 0 mm 4 mps 762 mmHg 78%
    01:00 +13°C° 0 mm 4 mps 761 mmHg 80%
    02:00 +13°C° 0 mm 4 mps 761 mmHg 82%
    03:00 +13°C° 0 mm 4 mps 761 mmHg 82%
    04:00 +13°C° 0 mm 4 mps 761 mmHg 81%
    05:00 +14°C° 0 mm 4 mps 761 mmHg 81%
    06:00 +15°C° 0 mm 4 mps 762 mmHg 77%
    07:00 +17°C° 0 mm 4 mps 762 mmHg 73%
    08:00 +17°C° 0 mm 5 mps 762 mmHg 69%
    09:00 +19°C° 0 mm 4 mps 762 mmHg 65%
    10:00 +20°C° 0 mm 4 mps 762 mmHg 61%
    11:00 +21°C° 0 mm 4 mps 762 mmHg 58%
    12:00 +21°C° 0 mm 4 mps 762 mmHg 58%
    13:00 +21°C° 0 mm 4 mps 762 mmHg 59%
    14:00 +20°C° 0 mm 4 mps 762 mmHg 59%
    15:00 +20°C° 0 mm 4 mps 762 mmHg 60%
    16:00 +20°C° 0 mm 4 mps 762 mmHg 62%
    17:00 +19°C° 0 mm 4 mps 762 mmHg 63%
    18:00 +18°C° 0 mm 4 mps 762 mmHg 69%
    19:00 +17°C° 0 mm 3 mps 763 mmHg 74%
    20:00 +14°C° 0 mm 3 mps 763 mmHg 80%
    21:00 +14°C° 0 mm 3 mps 764 mmHg 81%
    22:00 +13°C° 0 mm 3 mps 764 mmHg 83%
    23:00 +13°C° 0 mm 3 mps 764 mmHg 84%
    Show more